This is the latest recevied weather packets stored in our database for station/object KE5KUL-13. If no packets are shown the sender has not sent any weather packets the latest 10 day(s).
| Time | Temp. | Humidity | Pressure | Rain* | Wind** | Luminosity | Snow |
|---|---|---|---|---|---|---|---|
| 1778075418 | 7.22° C | 68% | 1016.3 hPa | 0 mm | - | - | - |
| 1778074818 | 7.22° C | 68% | 1016.5 hPa | 0 mm | - | - | - |
| 1778074218 | 6.67° C | 69% | 1016.5 hPa | 0 mm | - | - | - |
| 1778073618 | 6.67° C | 69% | 1016.5 hPa | 0 mm | - | - | - |
| 1778073018 | 6.11° C | 70% | 1016.6 hPa | 0 mm | - | - | - |
| 1778072418 | 6.11° C | 70% | 1017.1 hPa | 0 mm | - | - | - |
| 1778071818 | 6.11° C | 70% | 1017 hPa | 0 mm | - | - | - |
| 1778071217 | 6.11° C | 72% | 1016.9 hPa | 0 mm | - | - | - |
| 1778070618 | 5.56° C | 72% | 1016.9 hPa | 0 mm | - | - | - |
| 1778070018 | 5.56° C | 72% | 1017 hPa | 0 mm | - | - | - |
| 1778069418 | 5.56° C | 72% | 1016.5 hPa | 0 mm | - | - | - |
| 1778068817 | 5.56° C | 72% | 1016.5 hPa | 0 mm | - | - | - |
| 1778068218 | 5.56° C | 73% | 1016.1 hPa | 0 mm | - | - | - |
| 1778067618 | 5.56° C | 74% | 1016.2 hPa | 0 mm | - | - | - |
| 1778067018 | 5.56° C | 78% | 1016 hPa | 0 mm | - | - | - |
| 1778066417 | 5° C | 80% | 1015.9 hPa | 0 mm | - | - | - |
| 1778065817 | 5° C | 81% | 1015.8 hPa | 0 mm | - | - | - |
| 1778065217 | 5° C | 82% | 1016 hPa | 0 mm | - | - | - |
| 1778064618 | 5.56° C | 82% | 1016.2 hPa | 0 mm | - | - | - |
| 1778064018 | 5.56° C | 81% | 1016.2 hPa | 0 mm | - | - | - |
| 1778063417 | 6.11° C | 79% | 1016.1 hPa | 0 mm | - | - | - |
| 1778062817 | 6.67° C | 78% | 1016.3 hPa | 0 mm | - | - | - |
| 1778062218 | 6.67° C | 78% | 1016.1 hPa | 0 mm | - | - | - |
| 1778061658 | 6.67° C | 78% | 1015.8 hPa | 0 mm | - | - | - |
| 1778061317 | 6.67° C | 78% | 1015.7 hPa | 0 mm | - | - | - |
* Rain latest hour (hover to see other rain measurements)
** Current wind speed in m/s (hover to see current wind gust speed)